EHI
0 0 0 0 0 0 0 0 0 0 0 0 0 0 0 0 0 0 0 0 0 0 0 0 0 0 0 0 0 0 0 0 0 0 0 0 0 0 0 1 2 3 2
0 0 0 0 0 0 0 0 0 0 0 0 0 0 0 0 0 0 0 0 0 0 0 0 0 0 0 0 0 0 0 0 0 0 0 0 0 0 0 1 2 3 2
0 0 0 0 0 0 0 0 0 0 0 0 0 0 0 0 0 0 0 0 0 0 0 0 0 0 0 0 0 0 0 0 0 0 0 0 0 0 0 0 1 2 1
0 0 0 0 0 0 0 0 0 0 0 0 0 0 0 0 0 0 0 0 0 0 0 0 0 0 0 0 0 0 0 0 0 0 0 0 0 0 0 0 0 0 0
0 0 0 0 0 0 0 0 0 0 0 0 0 0 0 0 0 0 0 0 0 0 0 0 0 0 0 0 0 0 0 0 0 0 0 0 0 0 0 0 0 0 0
0 0 0 1 1 1 0 0 0 0 0 0 0 0 0 0 0 0 0 0 0 0 0 0 0 0 0 0 0 0 0 0 0 0 0 0 0 0 0 0 0 0 0
0 0 0 1 1 1 0 0 0 0 0 0 0 0 0 0 0 0 0 0 0 0 0 0 0 0 0 0 0 0 0 0 0 0 0 0 0 0 0 0 0 0 0
0 0 0 1 1 0 0 0 0 0 0 0 0 0 0 0 0 0 0 0 0 0 0 0 0 0 0 0 0 0 0 0 0 0 0 0 0 0 0 0 0 0 0
0 0 0 0 0 0 0 0 0 0 0 0 0 0 0 0 0 0 0 0 0 0 0 0 0 0 0 0 0 0 0 0 0 0 0 0 0 0 0 0 0 0 0
0 0 0 0 0 0 0 0 0 0 0 0 0 0 0 0 0 0 0 0 0 0 0 0 0 0 0 0 0 0 0 0 0 0 0 0 0 0 0 0 0 0 0
0 0 0 0 0 0 0 0 0 0 0 0 0 0 0 0 0 0 0 0 0 0 0 0 0 0 0 0 0 0 0 0 0 0 0 0 0 0 0 0 0 0 0
0 0 0 0 0 0 0 0 0 0 0 0 0 0 0 0 0 0 0 0 0 0 0 0 0 0 0 0 0 0 0 0 0 0 0 0 0 0 0 0 0 0 0
0 0 0 0 0 0 0 0 0 0 0 0 0 0 0 0 0 0 0 0 0 0 0 0 0 0 0 0 0 0 0 0 0 0 0 0 0 0 0 0 0 0 0
0 0 0 0 0 0 0 0 0 0 0 0 0 0 0 0 0 0 0 0 0 0 0 0 0 0 0 0 0 0 0 0 0 0 0 0 0 0 0 0 0 0 0
0 0 0 0 0 0 0 0 0 0 0 0 0 0 0 0 0 0 0 0 0 0 0 0 0 0 0 0 0 0 0 0 0 0 0 0 0 0 0 0 0 0 0
0 0 0 0 0 0 0 0 0 0 0 0 0 0 0 0 0 0 0 0 0 0 0 0 0 0 0 0 0 0 0 0 0 0 0 0 0 0 0 0 0 0 0
0 0 0 0 0 0 0 0 0 0 0 0 0 0 0 0 0 0 0 0 0 0 0 0 0 0 0 0 0 0 0 0 0 0 0 0 0 0 0 0 0 0 0
0 0 0 0 0 0 0 0 0 0 0 0 0 0 0 0 0 0 0 0 0 0 0 0 0 0 0 0 0 0 0 0 0 0 0 0 0 0 0 0 0 0 0
0 0 0 0 0 0 0 0 0 0 0 0 0 0 0 0 0 0 0 0 0 0 0 0 0 0 0 0 0 0 0 0 0 0 0 0 0 0 0 0 0 0 0
0 0 0 0 0 0 0 0 0 0 0 0 0 0 0 0 0 0 0 0 0 0 0 0 0 0 0 0 0 0 0 0 0 0 0 0 0 0 0 0 0 0 0
0 0 0 0 0 0 0 0 0 0 0 0 0 0 0 0 0 0 0 0 0 0 0 0 0 0 0 0 0 0 0 0 0 0 0 0 0 0 0 0 0 0 0
0 0 0 0 0 0 0 0 0 0 0 0 0 0 0 0 0 0 0 0 0 0 0 0 0 0 0 0 0 0 0 0 0 0 0 0 0 0 0 0 0 0 0
0 0 0 0 0 0 0 0 0 0 0 0 0 0 0 0 0 0 0 0 0 0 0 0 0 0 0 0 0 0 0 0 0 0 0 0 0 0 0 0 0 0 0
0 0 0 0 0 0 0 0 0 0 0 0 0 0 0 0 0 0 0 0 0 0 0 0 0 0 0 0 0 0 0 0 0 0 0 0 0 0 0 0 0 0 0
0 0 0 0 0 0 0 0 0 0 0 0 0 0 0 0 0 0 0 0 0 0 0 0 0 0 0 0 0 0 0 0 0 0 0 0 0 0 0 0 0 0 0
0 0 0 0 0 0 0 0 0 0 0 0 0 0 0 0 0 0 0 0 0 0 0 0 0 0 0 0 0 0 0 0 0 0 0 0 0 0 0 0 0 0 0
Wind_Speed
6 6 6 7 8 8 7 7 7 6 4 2 2 1 1 2 2 2 2 3 4 5 4 5 4 4 4 4 5 4 5 4 4 5 4 3 4 3 2 3 4 4 3
5 6 6 7 8 8 8 8 7 6 5 2 2 1 2 2 2 2 2 3 4 4 4 5 4 4 4 5 4 4 4 3 3 4 4 3 3 3 2 3 3 3 3
3 4 5 6 7 8 8 7 7 7 6 5 2 2 2 3 2 2 2 3 4 4 5 5 5 5 5 4 4 4 4 4 3 2 3 3 2 2 2 2 2 2 2
0 1 3 5 6 7 7 7 7 7 6 6 4 4 3 3 3 3 2 3 3 4 4 5 5 5 4 4 4 3 3 4 4 2 3 4 3 2 2 2 2 2 2
2 1 1 2 3 4 6 6 7 7 6 6 5 5 5 3 3 3 4 4 3 4 4 4 5 5 4 4 4 4 4 3 4 3 3 3 3 5 2 2 2 2 2
3 2 1 1 2 3 4 5 6 7 6 7 7 6 5 5 5 4 4 4 3 3 3 4 4 4 4 4 4 4 3 3 4 3 3 3 3 3 3 3 3 2 1
5 4 3 1 0 2 3 5 6 7 7 8 8 7 6 6 6 5 4 4 3 3 3 4 4 4 4 4 4 4 3 3 3 3 3 3 3 3 3 3 3 2 2
7 6 4 2 1 1 2 3 5 6 6 7 7 7 7 5 4 4 5 4 4 3 4 4 5 4 4 5 4 4 3 3 3 3 3 3 3 3 3 3 2 3 3
9 7 6 4 3 2 1 2 3 5 5 6 7 7 7 6 5 5 5 4 4 4 4 4 5 4 4 5 4 4 3 3 3 3 3 4 2 3 3 3 3 3 3
10 9 7 6 5 4 3 2 3 4 4 5 6 5 6 6 6 6 5 5 5 4 5 5 5 4 4 4 4 4 3 4 3 2 4 3 3 2 3 3 3 3 3
10 9 8 7 6 5 4 3 3 3 3 4 5 5 6 6 7 6 6 5 5 5 6 5 5 5 4 4 3 4 3 5 3 3 4 4 3 3 3 3 3 3 3
9 9 9 8 8 7 6 5 4 4 3 4 4 5 5 6 7 7 7 7 6 6 6 6 5 5 5 4 4 4 4 4 4 4 4 3 3 4 3 3 3 3 3
9 9 9 9 9 8 7 6 5 5 4 4 4 5 5 6 7 7 7 7 7 6 6 6 6 5 5 5 4 4 4 4 4 4 4 4 4 5 3 4 3 3 3
9 10 9 9 9 8 7 7 7 6 5 4 4 5 6 6 7 7 7 7 7 7 7 7 6 6 6 5 5 5 5 4 3 4 4 4 4 4 3 3 4 3 3
10 10 10 9 9 9 8 8 7 6 5 5 5 5 6 6 6 6 7 7 7 8 8 7 7 6 6 5 5 5 5 4 4 3 3 3 2 3 2 2 3 3 4
9 10 10 10 10 9 9 9 8 8 6 6 6 6 6 6 6 7 7 7 7 8 8 8 8 7 6 3 4 7 6 5 5 4 3 3 4 4 4 2 2 3 4
9 9 9 9 9 9 9 9 9 8 7 6 6 6 7 7 7 7 7 8 8 8 8 9 9 9 7 6 7 8 8 6 5 5 4 3 2 4 4 6 6 4 3
9 9 9 9 9 9 9 9 8 8 7 7 7 7 7 8 8 8 8 9 9 8 8 9 9 9 8 8 9 9 10 8 7 6 5 5 5 4 4 4 5 4 4
8 8 9 9 9 9 9 9 9 8 8 8 9 8 8 8 8 8 8 8 8 9 9 9 9 10 10 10 11 11 8 8 8 7 6 6 5 4 3 5 5 5 4
7 8 8 8 8 9 9 9 9 9 9 9 10 10 9 9 9 10 10 8 8 9 9 9 10 10 11 9 12 14 9 8 7 6 7 5 5 5 6 7 6 6 5
7 7 7 7 8 9 9 9 10 10 11 10 10 10 10 10 10 10 9 9 8 9 9 10 10 10 11 10 12 13 10 8 8 7 7 6 9 7 7 7 5 3 4
7 7 7 7 7 8 9 10 10 11 11 11 10 10 11 10 9 9 9 9 8 9 9 9 9 9 9 10 11 14 14 10 9 7 6 6 11 9 8 7 3 4 4
7 7 8 8 8 8 9 11 11 11 11 11 11 11 11 10 10 10 9 8 8 8 8 8 8 8 7 7 10 13 15 13 10 6 4 5 10 10 9 7 7 7 6
7 7 8 9 9 10 10 11 11 11 12 12 11 11 11 10 10 8 8 8 7 8 8 8 8 8 7 7 7 8 9 11 11 9 7 8 8 7 5 8 9 7 6
7 7 8 9 10 11 11 11 12 12 13 13 12 11 10 10 10 9 8 9 9 8 9 9 9 9 9 8 7 7 8 9 9 9 8 8 8 9 8 8 7 7 7
8 8 9 10 11 11 12 11 11 12 13 12 11 9 9 9 9 10 10 9 11 12 13 14 14 11 11 8 8 10 10 8 10 10 10 10 10 10 10 9 8 8 8
Wind_Direction
192 184 191 195 195 192 194 188 191 182 183 186 233 263 279 294 299 314 328 311 315 321 318 310 318 312 307 306 302 296 284 277 287 277 263 239 236 240 227 235 233 213 203
198 185 193 193 200 196 198 196 195 192 192 188 228 269 300 292 311 297 290 304 314 317 314 316 311 309 301 295 299 294 294 288 269 273 268 238 203 211 220 214 224 223 197
215 190 197 199 202 203 199 201 201 196 197 192 206 230 242 254 245 264 287 303 304 306 311 314 312 309 301 304 299 290 283 287 274 264 274 269 240 191 196 210 210 220 213
19 184 204 211 210 207 203 207 204 207 199 197 214 242 268 290 305 301 297 288 285 297 304 304 303 303 303 301 297 297 281 275 271 251 257 278 301 259 193 190 200 210 213
26 35 202 209 209 204 206 214 210 212 209 215 214 238 259 283 290 289 287 290 296 292 296 302 303 304 300 300 298 295 282 269 272 265 253 254 258 258 250 205 192 186 185
33 35 53 135 172 190 205 213 216 215 213 219 222 234 255 266 278 282 291 290 286 283 291 297 297 300 304 300 295 287 273 271 272 268 256 254 247 245 240 232 210 191 159
33 33 33 40 163 200 212 216 218 220 218 222 228 235 245 258 265 277 281 284 288 286 299 295 296 302 304 299 294 283 279 263 266 267 264 264 262 261 253 242 218 194 178
31 27 20 14 359 259 231 233 229 231 227 232 236 237 238 247 262 266 278 279 287 295 299 291 292 296 298 295 291 280 268 266 257 256 253 254 255 258 252 250 232 211 197
29 26 23 18 14 355 311 266 250 242 236 239 242 244 245 246 255 258 262 273 275 284 287 285 283 288 292 292 291 280 269 271 266 257 242 249 248 254 254 248 243 247 227
28 27 26 21 15 9 357 323 282 270 257 252 246 246 250 248 251 257 260 267 272 278 276 279 281 285 286 284 284 283 280 269 259 258 254 245 237 232 236 244 246 249 260
27 26 25 22 17 11 7 353 328 300 285 271 262 251 248 250 249 249 253 254 261 263 268 272 276 280 283 280 276 280 268 268 263 245 244 238 245 237 226 223 232 235 235
29 29 26 26 22 15 5 353 342 328 309 290 278 267 262 252 251 251 250 251 254 260 266 268 268 273 275 272 275 276 272 268 271 262 254 238 222 233 236 226 228 225 227
29 28 26 25 19 14 6 359 346 335 326 308 289 279 269 264 262 263 259 256 255 255 256 258 261 266 267 266 264 269 268 264 266 264 260 249 233 229 218 223 223 222 219
27 24 20 19 13 9 3 357 351 341 329 315 298 289 288 281 272 270 269 263 258 255 255 254 253 254 257 258 255 257 260 260 259 259 256 251 245 246 230 222 220 215 214
21 18 13 10 6 4 0 357 351 343 329 314 304 298 295 295 284 274 266 264 261 259 256 256 253 249 250 255 263 259 255 253 250 247 248 245 277 340 302 278 237 217 218
12 8 6 3 359 357 354 351 347 341 330 318 312 311 301 297 289 280 273 267 262 260 256 253 250 247 242 221 245 262 254 248 242 240 241 218 198 195 206 253 307 298 250
3 359 357 356 351 350 347 344 341 337 330 324 320 316 308 299 291 284 277 268 260 255 254 250 248 246 234 203 213 234 255 249 246 243 235 227 206 207 199 185 197 217 251
357 354 349 347 345 346 345 340 339 338 335 331 325 320 310 302 296 290 280 273 268 259 252 252 247 243 236 207 212 220 238 243 238 235 237 228 220 201 221 206 195 195 188
351 348 345 342 343 345 343 338 340 339 335 332 324 321 313 305 296 288 280 275 271 266 256 251 248 243 233 207 210 219 233 235 233 229 230 230 223 159 204 226 207 194 176
348 344 341 341 344 344 339 335 336 338 335 329 322 319 314 306 297 290 285 278 269 264 262 255 249 245 244 212 205 218 231 232 228 222 219 210 230 169 194 221 212 207 189
343 339 337 339 339 336 333 331 333 334 331 323 318 314 312 307 300 295 289 281 272 266 262 258 251 246 244 222 205 212 232 231 228 220 215 199 178 186 197 233 231 207 201
337 336 334 335 333 331 329 327 329 327 324 318 313 311 310 308 304 298 291 283 276 267 261 258 254 247 238 233 212 207 223 242 233 227 220 193 167 182 194 209 193 163 199
330 329 328 326 326 328 326 321 324 323 320 315 312 309 307 306 305 301 294 285 277 269 265 259 256 252 244 225 211 210 216 223 232 231 210 169 165 178 189 191 184 191 204
325 322 319 321 325 325 321 318 320 318 316 314 312 310 308 309 308 305 295 287 281 275 270 266 261 257 250 239 217 211 212 209 217 221 184 171 176 197 196 179 190 206 208
316 316 316 318 318 319 319 319 319 318 314 313 310 309 309 306 302 299 294 286 280 279 278 274 270 264 255 248 238 232 223 214 209 201 198 196 192 197 199 197 194 195 191
313 313 314 312 313 316 317 318 319 316 313 312 310 307 305 302 299 298 296 280 269 270 266 265 267 270 271 267 241 239 244 227 196 198 206 203 202 203 200 196 191 192 192